Date,TemperatureHighF,TemperatureAvgF,TemperatureLowF,DewpointHighF,DewpointAvgF,DewpointLowF,HumidityHigh,HumidityAvg,HumidityLow,PressureMaxIn,PressureMinIn,WindSpeedMaxMPH,WindSpeedAvgMPH,GustSpeedMaxMPH,PrecipitationSumIn
2013-9-1,81.8,73.9,69.3,76.1,70.1,66.2,99,89,67,29.91,29.82,4,0,7,0.10
2013-9-2,82.2,73.9,68.8,72.3,68.5,65.6,93,84,67,29.93,29.83,4,0,7,0.01
2013-9-3,83.6,74.8,68.8,71.1,67.2,61.2,97,79,51,29.99,29.83,4,0,7,0.00
2013-9-4,80.7,71.9,65.0,66.6,62.5,58.9,84,73,57,30.11,29.98,3,0,9,0.00
2013-9-5,79.8,71.1,64.5,65.8,61.5,58.3,83,72,58,30.15,30.08,3,0,7,0.00
2013-9-6,81.6,72.6,66.4,66.0,61.7,58.8,81,69,55,30.15,30.06,4,0,9,0.00
2013-9-7,80.5,73.5,66.0,69.4,65.1,60.0,86,75,65,30.10,29.99,4,1,10,0.00
2013-9-8,81.4,74.9,68.4,70.7,67.1,64.1,90,77,61,30.01,29.93,2,0,6,0.00
2013-9-9,81.4,75.7,71.3,71.8,69.3,66.7,94,81,67,30.08,29.97,4,0,8,0.00
2013-9-10,84.7,75.9,68.9,71.2,67.5,64.4,89,76,55,30.19,30.08,4,0,10,0.00
2013-9-11,82.2,75.3,69.4,71.9,67.7,64.0,93,78,56,30.20,30.08,5,0,9,0.00
2013-9-12,84.0,75.9,71.1,69.0,66.4,64.2,84,73,58,30.08,29.89,3,0,9,0.00
2013-9-13,76.8,69.5,58.1,65.9,58.0,48.7,93,69,41,29.97,29.86,3,0,9,0.00
2013-9-14,73.5,62.3,53.5,55.7,50.3,46.1,80,66,47,30.07,29.95,5,1,12,0.00
2013-9-15,76.5,67.0,58.6,63.8,57.2,50.5,84,71,53,30.16,30.07,6,1,12,0.00
2013-9-16,81.6,71.0,64.0,63.0,58.5,50.3,82,66,38,30.15,30.08,2,0,7,0.00
2013-9-17,76.3,68.4,62.1,64.7,60.9,58.2,88,77,65,30.20,30.11,6,1,10,0.00
2013-9-18,74.6,67.6,62.6,62.9,58.8,55.3,86,74,62,30.22,30.11,4,0,7,0.00
2013-9-19,77.2,69.3,61.2,65.1,61.7,58.2,92,78,63,30.18,30.04,5,1,9,0.00
2013-9-20,68.8,66.3,64.5,63.2,62.0,61.0,90,86,82,30.06,30.03,3,0,4,0.00
2013-9-21,66.8,62.8,57.5,66.8,61.8,55.2,100,97,90,29.83,29.74,5,1,7,1.66
2013-9-22,72.0,62.1,54.1,58.6,52.3,47.8,92,71,50,29.91,29.83,6,1,15,0.00
2013-9-23,73.9,64.3,55.4,61.7,55.8,51.0,89,75,58,30.01,29.90,5,1,7,0.00
2013-9-24,67.3,63.1,60.4,62.8,59.5,56.9,97,88,79,30.02,29.88,5,0,9,0.00
2013-9-25,64.7,63.4,62.6,64.7,63.2,61.6,100,99,93,29.88,29.82,1,0,4,0.77
2013-9-26,73.7,65.7,61.6,64.4,61.6,56.5,100,88,66,30.01,29.87,4,0,7,0.01
2013-9-27,74.4,66.3,59.6,61.2,57.8,53.3,94,75,56,30.14,30.01,5,0,8,0.00
2013-9-28,72.7,65.6,58.4,60.1,56.4,54.2,88,73,55,30.20,30.09,5,1,9,0.00
2013-9-29,69.3,63.2,55.9,58.2,54.5,51.7,88,74,60,30.14,30.01,4,0,9,0.00
2013-9-30,70.6,63.1,57.2,58.4,55.6,53.8,92,77,59,30.08,30.00,4,1,10,0.00